CW4221 Weather Reports


Display with metric or nautical units.
time (UTC)temp
F
wind
direction
speed
MPH
gust
MPH
rain 1hr
in
rain 24hr
in
rain mn
in
humidity
%
barometer
mb
20260902184821 93 56 1.0 7.0 0.00 0.00 0.00 51 1017.8
20260902184318 93 198 2.0 7.0 0.00 0.00 0.00 48 1017.9
20260902183814 93 222 1.0 7.0 0.00 0.00 0.00 48 1018.0
20260902183329 93 234 3.0 7.0 0.00 0.00 0.00 48 1018.0
20260902182825 94 196 2.0 7.0 0.00 0.00 0.00 48 1018.0
20260902182320 94 218 2.0 8.0 0.00 0.00 0.00 52 1018.1
20260902181815 94 248 2.0 8.0 0.00 0.00 0.00 47 1018.1
20260902181316 94 232 3.0 7.0 0.00 0.00 0.00 48 1018.2
20260902180812 93 88 2.0 4.0 0.00 0.00 0.00 51 1018.3
20260902180327 93 240 2.0 4.0 0.00 0.00 0.00 49 1018.3
20260902175823 92 255 2.0 8.0 0.00 0.00 0.00 49 1018.3
20260902175319 94 267 5.0 7.0 0.00 0.00 0.00 50 1018.4
20260902174835 92 269 1.0 9.0 0.00 0.00 0.00 50 1018.6
20260902174310 93 248 3.0 9.0 0.00 0.00 0.00 50 1018.6
20260902173810 93 267 2.0 7.0 0.00 0.00 0.00 52 1018.7
20260902173327 93 211 2.0 7.0 0.00 0.00 0.00 49 1018.8
20260902172823 93 146 3.0 7.0 0.00 0.00 0.00 49 1018.7
20260902172319 93 240 2.0 8.0 0.00 0.00 0.00 50 1018.8
20260902171815 93 244 3.0 6.0 0.00 0.00 0.00 50 1018.9
20260902171311 92 196 3.0 6.0 0.00 0.00 0.00 52 1018.9
20260902170847 92 216 5.0 7.0 0.00 0.00 0.00 49 1019.1
20260902170322 93 213 3.0 7.0 0.00 0.00 0.00 50 1019.1
20260902165821 92 246 4.0 8.0 0.00 0.00 0.00 51 1019.1
20260902165318 92 225 3.0 6.0 0.00 0.00 0.00 52 1019.1
20260902164835 91 241 2.0 9.0 0.00 0.00 0.00 53 1019.2
20260902164311 91 244 4.0 9.0 0.00 0.00 0.00 52 1019.3
20260902163827 91 257 6.0 11.0 0.00 0.00 0.00 53 1019.3
20260902163322 91 265 4.0 8.0 0.00 0.00 0.00 53 1019.3
20260902162839 91 216 4.0 7.0 0.00 0.00 0.00 53 1019.4
20260902162315 91 219 4.0 6.0 0.00 0.00 0.00 54 1019.5
20260902161816 90 228 3.0 9.0 0.00 0.00 0.00 54 1019.5
20260902161311 90 263 6.0 9.0 0.00 0.00 0.00 54 1019.5
20260902160848 90 242 4.0 9.0 0.00 0.00 0.00 54 1019.5
20260902160323 90 249 4.0 8.0 0.00 0.00 0.00 55 1019.6
20260902155819 90 123 3.0 9.0 0.00 0.00 0.00 54 1019.6
20260902155335 90 207 3.0 9.0 0.00 0.00 0.00 55 1019.5
20260902154830 89 277 6.0 9.0 0.00 0.00 0.00 56 1019.5
20260902154326 89 246 4.0 7.0 0.00 0.00 0.00 56 1019.5
20260902153822 89 223 3.0 8.0 0.00 0.00 0.00 56 1019.5
20260902153322 89 255 4.0 9.0 0.00 0.00 0.00 57 1019.5
20260902152818 89 240 5.0 9.0 0.00 0.00 0.00 56 1019.5
20260902152314 89 235 2.0 8.0 0.00 0.00 0.00 59 1019.4
20260902151811 88 227 3.0 7.0 0.00 0.00 0.00 58 1019.4
20260902151327 88 187 3.0 12.0 0.00 0.00 0.00 58 1019.4
20260902150823 88 239 5.0 12.0 0.00 0.00 0.00 58 1019.4
20260902150318 88 264 3.0 5.0 0.00 0.00 0.00 59 1019.5
20260902145814 87 208 2.0 5.0 0.00 0.00 0.00 60 1019.5
20260902145310 86 233 2.0 6.0 0.00 0.00 0.00 61 1019.5
20260902144811 86 232 4.0 7.0 0.00 0.00 0.00 62 1019.4
20260902144348 86 245 2.0 6.0 0.00 0.00 0.00 62 1019.4
20260902143826 86 248 3.0 8.0 0.00 0.00 0.00 62 1019.5
20260902143319 86 267 3.0 8.0 0.00 0.00 0.00 62 1019.4
20260902142835 85 205 2.0 6.0 0.00 0.00 0.00 66 1019.4
20260902142330 85 181 3.0 6.0 0.00 0.00 0.00 63 1019.3
20260902141825 84 242 2.0 6.0 0.00 0.00 0.00 65 1019.4
20260902141341 84 166 2.0 10.0 0.00 0.00 0.00 65 1019.4
20260902140815 84 213 4.0 10.0 0.00 0.00 0.00 65 1019.4
20260902140311 83 243 2.0 5.0 0.00 0.00 0.00 67 1019.4
20260902135831 83 220 2.0 4.0 0.00 0.00 0.00 68 1019.4
20260902135327 83 207 1.0 4.0 0.00 0.00 0.00 69 1019.5
20260902134824 82 206 2.0 5.0 0.00 0.00 0.00 68 1019.5
20260902134320 82 201 2.0 5.0 0.00 0.00 0.00 69 1019.5
20260902133815 81 194 1.0 4.0 0.00 0.00 0.00 70 1019.6
20260902133311 81 154 1.0 4.0 0.00 0.00 0.00 70 1019.6
20260902132849 81 223 1.0 3.0 0.00 0.00 0.00 72 1019.6
20260902132325 80 157 1.0 3.0 0.00 0.00 0.00 71 1019.6
20260902131841 80 187 1.0 3.0 0.00 0.00 0.00 72 1019.6
20260902131320 79 144 1.0 2.0 0.00 0.00 0.00 73 1019.5
20260902130817 79 216 0.0 2.0 0.00 0.00 0.00 72 1019.6
20260902130314 78 195 0.0 2.0 0.00 0.00 0.00 73 1019.6
20260902125810 78 167 0.0 2.0 0.00 0.00 0.00 73 1019.5
20260902125326 78 225 0.0 2.0 0.00 0.00 0.00 74 1019.5
20260902124822 77 202 0.0 2.0 0.00 0.00 0.00 74 1019.5
20260902124318 77 184 0.0 2.0 0.00 0.00 0.00 74 1019.5
20260902123818 77 136 0.0 2.0 0.00 0.00 0.00 74 1019.6
20260902123335 77 162 0.0 2.0 0.00 0.00 0.00 74 1019.6
20260902122811 77 142 1.0 2.0 0.00 0.00 0.00 75 1019.6
20260902122327 76 151 0.0 2.0 0.00 0.00 0.00 76 1019.5
20260902121823 76 171 0.0 2.0 0.00 0.00 0.00 76 1019.4
20260902121341 75 155 0.0 2.0 0.00 0.00 0.00 77 1019.3
20260902120815 75 149 0.0 2.0 0.00 0.00 0.00 77 1019.2
20260902120311 75 149 0.0 2.0 0.00 0.00 0.00 77 1019.2
20260902115811 75 149 0.0 2.0 0.00 0.00 0.00 77 1019.1
20260902115327 75 149 0.0 2.0 0.00 0.00 0.00 77 1019.0
20260902114823 75 149 0.0 2.0 0.00 0.00 0.00 78 1018.9
20260902114318 74 131 0.0 2.0 0.00 0.00 0.00 79 1018.9
20260902113814 73 131 0.0 2.0 0.00 0.00 0.00 80 1018.9
20260902113310 73 131 0.0 2.0 0.00 0.00 0.00 80 1018.8
20260902112826 73 131 0.0 2.0 0.00 0.00 0.00 80 1018.8
20260902112322 73 131 0.0 2.0 0.00 0.00 0.00 81 1018.8
20260902111823 73 131 0.0 2.0 0.00 0.00 0.00 81 1018.9
20260902111318 73 131 0.0 0.0 0.00 0.00 0.00 80 1018.7
20260902110816 72 131 0.0 0.0 0.00 0.00 0.00 82 1018.7
20260902110312 72 131 0.0 0.0 0.00 0.00 0.00 82 1018.7
20260902105827 72 131 0.0 0.0 0.00 0.00 0.00 81 1018.6
20260902105322 72 131 0.0 0.0 0.00 0.00 0.00 81 1018.6
20260902104818 73 131 0.0 0.0 0.00 0.00 0.00 81 1018.6
20260902104318 73 131 0.0 0.0 0.00 0.00 0.00 79 1018.6
20260902103814 74 131 0.0 0.0 0.00 0.00 0.00 77 1018.6
20260902103312 75 131 0.0 0.0 0.00 0.00 0.00 75 1018.6
20260902102828 76 131 0.0 2.0 0.00 0.00 0.00 74 1018.5
20260902102344 77 131 0.0 2.0 0.00 0.00 0.00 73 1018.5
20260902101820 77 119 0.0 2.0 0.00 0.00 0.00 72 1018.4
20260902101315 77 118 1.0 3.0 0.00 0.00 0.00 72 1018.3
20260902100813 77 150 1.0 2.0 0.00 0.00 0.00 72 1018.3
20260902100314 77 150 0.0 2.0 0.00 0.00 0.00 71 1018.4
20260902095827 77 198 0.0 3.0 0.00 0.00 0.00 71 1018.3
20260902095344 77 229 0.0 3.0 0.00 0.00 0.00 71 1018.4
20260902094820 77 114 0.0 3.0 0.00 0.00 0.00 71 1018.4
20260902094315 77 141 1.0 3.0 0.00 0.00 0.00 71 1018.3
20260902093812 77 136 0.0 2.0 0.00 0.00 0.00 71 1018.4
20260902093349 77 156 1.0 2.0 0.00 0.00 0.00 71 1018.3
20260902092823 77 196 0.0 2.0 0.00 0.00 0.00 72 1018.3
20260902092319 77 188 0.0 3.0 0.00 0.00 0.00 72 1018.2
20260902091839 76 199 1.0 3.0 0.00 0.00 0.00 73 1018.1
20260902091315 76 242 0.0 2.0 0.00 0.00 0.00 73 1018.1
20260902090811 76 111 0.0 2.0 0.00 0.00 0.00 74 1018.1
20260902090328 76 132 1.0 2.0 0.00 0.00 0.00 74 1018.2
20260902085843 76 151 0.0 2.0 0.00 0.00 0.00 75 1018.2
20260902085338 76 151 0.0 2.0 0.00 0.00 0.00 75 1018.2
20260902084814 76 151 0.0 2.0 0.00 0.00 0.00 74 1018.2
20260902084309 76 151 0.0 2.0 0.00 0.00 0.00 75 1018.3
20260902083810 75 93 1.0 2.0 0.00 0.00 0.00 75 1018.2
20260902083325 75 119 1.0 2.0 0.00 0.00 0.00 75 1018.2
20260902082822 75 111 1.0 2.0 0.00 0.00 0.00 76 1018.2
20260902082318 75 173 0.0 2.0 0.00 0.00 0.00 77 1018.3
20260902081814 74 196 0.0 1.0 0.00 0.00 0.00 78 1018.3
20260902081331 74 196 0.0 0.0 0.00 0.00 0.00 79 1018.3
20260902080827 74 197 0.0 0.0 0.00 0.00 0.00 78 1018.3
20260902080322 74 196 0.0 1.0 0.00 0.00 0.00 79 1018.3
20260902075821 73 196 0.0 0.0 0.00 0.00 0.00 80 1018.3
20260902075317 73 196 0.0 0.0 0.00 0.00 0.00 80 1018.3
20260902074813 73 196 0.0 0.0 0.00 0.00 0.00 79 1018.3
20260902074349 74 196 0.0 0.0 0.00 0.00 0.00 78 1018.3
20260902073825 74 197 0.0 2.0 0.00 0.00 0.00 79 1018.3
20260902073322 74 196 0.0 2.0 0.00 0.00 0.00 78 1018.2
20260902072818 74 197 0.0 2.0 0.00 0.00 0.00 78 1018.3
20260902072313 74 196 0.0 0.0 0.00 0.00 0.00 77 1018.2
20260902071813 74 196 0.0 0.0 0.00 0.00 0.00 76 1018.2
20260902071329 75 196 0.0 0.0 0.00 0.00 0.00 74 1018.2
20260902070825 76 196 0.0 0.0 0.00 0.00 0.00 73 1018.2
20260902070321 77 196 0.0 2.0 0.00 0.00 0.00 71 1018.3
20260902065816 77 196 0.0 0.0 0.00 0.00 0.00 70 1018.2
20260902065312 77 196 0.0 2.0 0.00 0.00 0.00 70 1018.2
20260902064848 77 196 0.0 2.0 0.00 0.00 0.00 71 1018.2
20260902064324 77 197 0.0 2.0 0.00 0.00 0.00 70 1018.2
20260902063824 78 197 0.0 2.0 0.00 0.00 0.00 69 1018.2
20260902063321 78 197 0.0 2.0 0.00 0.00 0.00 69 1018.2
20260902062817 78 220 0.0 2.0 0.00 0.00 0.00 69 1018.2
20260902062314 78 220 0.0 2.0 0.00 0.00 0.00 69 1018.2
20260902061810 78 220 0.0 2.0 0.00 0.00 0.00 69 1018.2
20260902061346 78 220 0.0 2.0 0.00 0.00 0.00 69 1018.2
20260902060822 78 220 0.0 2.0 0.00 0.00 0.00 69 1018.2
20260902060319 78 175 0.0 2.0 0.00 0.00 0.00 68 1018.2
20260902055817 78 175 0.0 2.0 0.00 0.00 0.00 69 1018.1
20260902055314 78 175 0.0 1.0 0.00 0.00 0.00 68 1018.1
20260902054830 79 175 0.0 2.0 0.00 0.00 0.00 67 1018.0
20260902054326 79 175 0.0 2.0 0.00 0.00 0.00 67 1018.1
20260902053822 79 138 0.0 2.0 0.00 0.00 0.00 67 1018.0
20260902053319 80 138 0.0 2.0 0.00 0.00 0.00 66 1018.0
20260902052816 80 201 0.0 2.0 0.00 0.00 0.00 66 1018.0
20260902052312 80 248 0.0 2.0 0.00 0.00 0.00 65 1018.0
20260902051812 80 248 0.0 2.0 0.00 0.00 0.00 64 1018.0
20260902051327 80 213 1.0 2.0 0.00 0.00 0.00 64 1018.0
20260902050840 80 173 0.0 3.0 0.00 0.00 0.00 64 1018.0
20260902050315 80 198 1.0 3.0 0.00 0.00 0.00 64 1017.9
20260902045810 80 219 1.0 3.0 0.00 0.00 0.00 65 1017.9
20260902045347 80 194 1.0 3.0 0.00 0.00 0.00 64 1017.9
20260902044822 81 175 1.0 3.0 0.00 0.00 0.00 64 1018.0
20260902044320 81 223 1.0 3.0 0.00 0.00 0.00 64 1017.9
20260902043820 81 227 1.0 2.0 0.00 0.00 0.00 64 1017.9
20260902043317 81 188 0.0 5.0 0.00 0.00 0.00 64 1017.8
20260902042813 81 212 1.0 3.0 0.00 0.00 0.00 64 1017.8
20260902042310 80 210 0.0 3.0 0.00 0.00 0.00 65 1017.9
20260902041847 80 213 1.0 3.0 0.00 0.00 0.00 66 1017.7
20260902041342 80 144 1.0 3.0 0.00 0.00 0.00 66 1017.7
20260902040817 80 209 0.0 2.0 0.00 0.00 0.00 66 1017.7
20260902040314 80 190 0.0 2.0 0.00 0.00 0.00 67 1017.7
20260902035814 79 105 0.0 2.0 0.00 0.00 0.00 68 1017.7
20260902035310 79 105 0.0 2.0 0.00 0.00 0.00 68 1017.7
20260902034826 79 105 0.0 2.0 0.00 0.00 0.00 70 1017.6
20260902034322 78 105 0.0 2.0 0.00 0.00 0.00 72 1017.6
20260902033818 76 105 0.0 2.0 0.00 0.00 0.00 77 1017.6
20260902033314 75 105 0.0 2.0 0.00 0.00 0.00 81 1017.6
20260902032810 74 120 0.0 0.0 0.00 0.00 0.00 82 1017.7
20260902032325 74 120 0.0 0.0 0.00 0.00 0.00 82 1017.7
20260902031826 75 120 0.0 0.0 0.00 0.00 0.00 82 1017.6
20260902031341 75 120 0.0 0.0 0.00 0.00 0.00 81 1017.6
20260902030837 75 120 0.0 0.0 0.00 0.00 0.00 82 1017.4
20260902030310 75 120 0.0 0.0 0.00 0.00 0.00 81 1017.4
20260902025825 76 120 0.0 0.0 0.00 0.00 0.00 80 1017.4
20260902025321 76 120 0.0 0.0 0.00 0.00 0.00 80 1017.4
20260902024838 76 120 0.0 0.0 0.00 0.00 0.00 78 1017.3
20260902024313 76 120 0.0 0.0 0.00 0.00 0.00 78 1017.2
20260902023810 76 120 0.0 0.0 0.00 0.00 0.00 80 1017.1
20260902023331 76 120 0.0 0.0 0.00 0.00 0.00 79 1017.1
20260902022827 76 120 0.0 0.0 0.00 0.00 0.00 79 1017.0
20260902022344 77 120 0.0 0.0 0.00 0.00 0.00 79 1017.0
20260902021820 77 120 0.0 0.0 0.00 0.00 0.00 77 1016.9
20260902021316 78 120 0.0 0.0 0.00 0.00 0.00 77 1016.9
20260902020811 78 120 0.0 0.0 0.00 0.00 0.00 75 1016.9
20260902020325 78 120 0.0 0.0 0.00 0.00 0.00 75 1016.7
20260902015821 79 120 0.0 0.0 0.00 0.00 0.00 74 1016.7
20260902015317 80 120 0.0 0.0 0.00 0.00 0.00 72 1016.6
20260902014818 80 120 0.0 1.0 0.00 0.00 0.00 71 1016.5
20260902014313 80 120 0.0 2.0 0.00 0.00 0.00 71 1016.5
20260902013810 80 109 0.0 0.0 0.00 0.00 0.00 71 1016.5
20260902013326 80 109 0.0 2.0 0.00 0.00 0.00 71 1016.4
20260902012821 81 109 0.0 2.0 0.00 0.00 0.00 71 1016.4
20260902012317 80 109 0.0 2.0 0.00 0.00 0.00 71 1016.4
20260902011813 81 109 0.0 2.0 0.00 0.00 0.00 71 1016.3
20260902011330 80 109 0.0 2.0 0.00 0.00 0.00 72 1016.4
20260902010810 80 109 0.0 0.0 0.00 0.00 0.00 73 1016.3
20260902010327 80 109 0.0 0.0 0.00 0.00 0.00 73 1016.3
20260902005844 81 109 0.0 0.0 0.00 0.00 0.00 72 1016.3
20260902005338 81 109 0.0 0.0 0.00 0.00 0.00 71 1016.3
20260902004815 82 109 0.0 0.0 0.00 0.00 0.00 71 1016.3
20260902004311 83 109 0.0 0.0 0.00 0.00 0.00 68 1016.4
20260902003847 83 109 0.0 0.0 0.00 0.00 0.00 66 1016.4
20260902003321 84 109 0.0 0.0 0.00 0.00 0.00 66 1016.5
20260902002837 84 109 0.0 2.0 0.00 0.00 0.00 65 1016.5
20260902002312 85 109 0.0 2.0 0.00 0.00 0.00 66 1016.5
20260902001813 86 109 0.0 2.0 0.00 0.00 0.00 63 1016.6
20260902001349 87 109 0.0 2.0 0.00 0.00 0.00 57 1016.6
20260902000825 88 109 0.0 2.0 0.00 0.00 0.00 57 1016.6
20260902000322 89 109 0.0 2.0 0.00 0.00 0.00 54 1016.6
20260901235816 90 109 0.0 2.0 0.00 0.00 0.00 53 1016.7
20260901235312 91 109 0.0 2.0 0.00 0.00 0.00 52 1016.7
20260901234828 91 108 1.0 2.0 0.00 0.00 0.00 51 1016.7
20260901234324 92 92 0.0 2.0 0.00 0.00 0.00 49 1016.7
20260901233824 92 92 0.0 2.0 0.00 0.00 0.00 49 1016.8
20260901233321 92 190 1.0 3.0 0.00 0.00 0.00 49 1016.8
20260901232818 93 106 1.0 3.0 0.00 0.00 0.00 47 1016.8
20260901232315 93 95 1.0 4.0 0.00 0.00 0.00 48 1016.8
20260901231810 93 130 1.0 7.0 0.00 0.00 0.00 47 1016.8
20260901231328 93 101 2.0 7.0 0.00 0.00 0.00 46 1016.8
20260901230823 94 117 2.0 4.0 0.00 0.00 0.00 46 1016.8
20260901230322 94 175 2.0 4.0 0.00 0.00 0.00 45 1016.8
20260901225838 94 129 1.0 7.0 0.00 0.00 0.00 45 1016.8
20260901225313 94 98 2.0 7.0 0.00 0.00 0.00 45 1016.8
20260901224810 95 72 1.0 4.0 0.00 0.00 0.00 45 1016.7
20260901224325 95 78 2.0 7.0 0.00 0.00 0.00 43 1016.8
20260901223822 95 150 3.0 7.0 0.00 0.00 0.00 43 1016.7
20260901223317 95 109 2.0 4.0 0.00 0.00 0.00 44 1016.8
20260901222813 95 121 2.0 4.0 0.00 0.00 0.00 43 1016.8
20260901222313 95 94 2.0 5.0 0.00 0.00 0.00 45 1016.8
20260901221829 95 222 3.0 5.0 0.00 0.00 0.00 42 1016.7
20260901221323 95 107 2.0 4.0 0.00 0.00 0.00 45 1016.8
20260901220819 95 161 1.0 4.0 0.00 0.00 0.00 45 1016.7
20260901220315 95 147 1.0 4.0 0.00 0.00 0.00 45 1016.7
20260901215811 95 138 2.0 4.0 0.00 0.00 0.00 45 1016.7
20260901215328 95 112 1.0 3.0 0.00 0.00 0.00 44 1016.7
20260901214824 96 128 1.0 5.0 0.00 0.00 0.00 46 1016.7
20260901214325 96 157 2.0 8.0 0.00 0.00 0.00 43 1016.7
20260901213821 96 198 3.0 8.0 0.00 0.00 0.00 42 1016.8
20260901213317 96 105 1.0 6.0 0.00 0.00 0.00 45 1016.7
20260901212814 96 206 0.0 5.0 0.00 0.00 0.00 46 1016.8
20260901212310 96 135 2.0 4.0 0.00 0.00 0.00 46 1016.9
20260901211826 95 128 2.0 4.0 0.00 0.00 0.00 46 1016.9
20260901211322 95 49 1.0 3.0 0.00 0.00 0.00 45 1017.1
20260901210822 95 130 1.0 4.0 0.00 0.00 0.00 45 1017.2
20260901210317 96 126 1.0 3.0 0.00 0.00 0.00 47 1017.2
20260901205811 96 9 0.0 2.0 0.00 0.00 0.00 51 1017.2
20260901205328 96 336 1.0 2.0 0.00 0.00 0.00 47 1017.3
20260901204824 95 25 0.0 2.0 0.00 0.00 0.00 49 1017.4
20260901204320 95 25 0.0 2.0 0.00 0.00 0.00 52 1017.4
20260901203816 92 25 0.0 2.0 0.00 0.00 0.00 57 1017.4
20260901203318 91 25 0.0 3.0 0.00 0.00 0.00 58 1017.5
20260901202834 92 25 1.0 3.0 0.00 0.00 0.00 53 1017.5
20260901202309 92 49 1.0 2.0 0.00 0.00 0.00 56 1017.6
20260901201826 91 49 0.0 2.0 0.00 0.00 0.00 58 1017.7
20260901201323 91 49 0.0 2.0 0.00 0.00 0.00 59 1017.8
20260901200839 92 49 0.0 2.0 0.00 0.00 0.00 54 1017.9
20260901200314 92 49 0.0 3.0 0.00 0.00 0.00 52 1017.9
20260901195850 92 98 1.0 2.0 0.00 0.00 0.00 51 1018.0
20260901195324 93 60 0.0 2.0 0.00 0.00 0.00 51 1017.9
20260901194824 95 114 0.0 2.0 0.00 0.00 0.00 53 1018.0
20260901194340 93 115 0.0 2.0 0.00 0.00 0.00 56 1018.0
20260901193835 91 115 0.0 2.0 0.00 0.00 0.00 53 1018.1
20260901193331 92 80 0.0 2.0 0.00 0.00 0.00 52 1018.1
20260901192828 93 30 0.0 2.0 0.00 0.00 0.00 52 1018.1
20260901192324 94 39 1.0 2.0 0.00 0.00 0.00 52 1018.2
20260901191820 91 335 0.0 2.0 0.00 0.00 0.00 54 1018.3
20260901191316 90 335 0.0 1.0 0.00 0.00 0.00 57 1018.4
20260901190812 91 335 0.0 2.0 0.00 0.00 0.00 55 1018.3
20260901190312 91 335 0.0 2.0 0.00 0.00 0.00 53 1018.5
20260901185828 92 17 1.0 2.0 0.00 0.00 0.00 53 1018.5
20260901185324 92 17 1.0 3.0 0.00 0.00 0.00 53 1018.6